Weather History for YCIN - October, 2012

Change the Weather History Date:

Friday, October 19, 2012

  Actual Average Record
Temperature  
Mean Temperature 87 °F -  
Max Temperature 104 °F - - ()
Min Temperature 70 °F - - ()
Cooling Degree Days 22    
Growing Degree Days 37 (Base 50)    
Moisture  
Dew Point 68 °F    
Average Humidity 63    
Maximum Humidity 94    
Minimum Humidity 16    
Precipitation  
Precipitation 0.00 in - - ()
Sea Level Pressure  
Sea Level Pressure 29.81 in    
Wind  
Wind Speed 5 mph ()    
Max Wind Speed 10 mph    
Max Gust Speed -    
T = Trace of Precipitation, MM = Missing Value Source: Averaged Metar Reports

Daily Weather History Graph

Daily Weather History Graph

Search for Another Location

Airport or City:

Trip Planner

Search our weather history database for the weather conditions in past years. The results will help you decide how hot, cold, wet, or windy it might be!

Date:

Astronomy

Oct. 19, 2012 Rise Set
Actual Time 5:13 AM AWST 5:46 PM AWST
Civil Twilight 4:51 AM AWST 6:08 PM AWST
Nautical Twilight 4:25 AM AWST 6:34 PM AWST
Astronomical Twilight 3:59 AM AWST 7:00 PM AWST
Moon 8:19 AM AWST (10/19) 9:46 PM AWST (10/19)
Length of Visible Light 13h 17m
Length of Day
12h 32m
Waxing Crescent, 18% of the Moon is Illuminated
Oct 19
Waxing Crescent
Oct 22
First Quarter
Oct 30
Full
Nov 7
Last Quarter
Nov 14
New

Hourly Weather History & Observations

Time (AWST) Temp. Heat Index Dew Point Humidity Pressure Visibility Wind Dir Wind Speed Gust Speed Precip Events Conditions
12:00 AM 75 °F - 70 °F 79% 29.83 in - West 4.6 mph - -  
12:00 AM 75.2 °F - 69.8 °F 83% 29.83 in - West 4.6 mph - N/A   Unknown
1:00 AM 71.6 °F - 66.2 °F 83% 29.83 in - WSW 4.6 mph - N/A   Unknown
2:00 AM 71.6 °F - 66.2 °F 83% 29.80 in - West 4.6 mph - N/A   Unknown
3:00 AM 70 °F - 66 °F 83% 29.80 in - WSW 4.6 mph - -  
3:00 AM 69.8 °F - 66.2 °F 88% 29.80 in - SW 4.6 mph - N/A   Unknown
4:00 AM 71.6 °F - 69.8 °F 94% 29.80 in - SW 5.8 mph - N/A   Unknown
5:00 AM 71.6 °F - 69.8 °F 94% 29.83 in - SSW 2.3 mph - N/A   Unknown
6:00 AM 74 °F - 72 °F 91% 29.85 in - Calm Calm - -  
6:00 AM 73.4 °F - 71.6 °F 94% 29.86 in - Calm Calm - N/A   Unknown
7:00 AM 77.0 °F - 73.4 °F 89% 29.89 in - NNW 2.3 mph - N/A   Unknown
8:00 AM 82.4 °F 87.2 °F 71.6 °F 70% 29.89 in - SW 6.9 mph - N/A   Unknown
9:00 AM 87 °F - 70 °F 49% 29.88 in - WSW 5.8 mph - -  
9:00 AM 87.8 °F 92.6 °F 69.8 °F 55% 29.89 in - WSW 5.8 mph - N/A   Unknown
10:00 AM 93.2 °F 94.9 °F 64.4 °F 38% 29.86 in - WSW 4.6 mph - N/A   Unknown
11:00 AM 96.8 °F 97.1 °F 60.8 °F 30% 29.83 in - SW 8.1 mph - N/A   Unknown
12:00 PM 100 °F - 58 °F 16% 29.81 in - West 8.1 mph - -  
12:00 PM 100.4 °F 100.2 °F 59.0 °F 25% 29.80 in - West 8.1 mph - N/A   Unknown
1:00 PM 102.2 °F 100.4 °F 53.6 °F 20% 29.77 in - SSW 6.9 mph - N/A   Unknown
2:00 PM 102.2 °F 103.6 °F 60.8 °F 26% 29.74 in - NW 8.1 mph - N/A   Unknown
3:00 PM 103 °F - 63 °F 18% 29.72 in - WNW 10.4 mph - -  
3:00 PM 104.0 °F 106.6 °F 62.6 °F 26% 29.74 in - WNW 10.4 mph - N/A   Unknown
4:00 PM 96.8 °F 99.0 °F 64.4 °F 34% 29.74 in - NW 10.4 mph - N/A   Unknown
5:00 PM 89.6 °F 93.4 °F 68.0 °F 49% 29.74 in - NW 9.2 mph - N/A   Unknown
6:00 PM 86 °F - 69 °F 48% 29.75 in - NW 5.8 mph - -  
6:00 PM 86.0 °F 90.4 °F 69.8 °F 58% 29.77 in - NW 5.8 mph - N/A   Unknown
7:00 PM 84.2 °F 92.3 °F 75.2 °F 74% 29.80 in - NNW 8.1 mph - N/A   Unknown
8:00 PM 82.4 °F 89.5 °F 75.2 °F 79% 29.80 in - NW 5.8 mph - N/A   Unknown
9:00 PM 80 °F - 74 °F 78% 29.82 in - NNW 4.6 mph - -  
9:00 PM 80.6 °F 86.2 °F 75.2 °F 84% 29.83 in - NNW 4.6 mph - N/A   Unknown
10:00 PM 77.0 °F - 73.4 °F 89% 29.83 in - NNW 4.6 mph - N/A   Unknown
11:00 PM 75.2 °F - 73.4 °F 94% 29.80 in - NW 4.6 mph - N/A   Unknown